This is the latest recevied weather packets stored in our database for station/object SP1BMW-13. If no packets are shown the sender has not sent any weather packets the latest 10 day(s).
| Time | Temp. | Humidity | Pressure | Rain* | Wind** | Luminosity | Snow |
|---|---|---|---|---|---|---|---|
| 1787844316 | 26.11° C | 34% | 1017.9 hPa | 0 mm | 2.68 m/s, 42° | 250 W/m² | - |
| 1787844256 | 26.11° C | 34% | 1018.1 hPa | 0 mm | 0.89 m/s, 18° | 251 W/m² | - |
| 1787844196 | 26.11° C | 34% | 1017.9 hPa | 0 mm | 1.34 m/s, 59° | 252 W/m² | - |
| 1787844136 | 26.11° C | 35% | 1017.8 hPa | 0 mm | 0.45 m/s, 112° | 253 W/m² | - |
| 1787844076 | 26.11° C | 35% | 1017.9 hPa | 0 mm | 0.89 m/s, 131° | 257 W/m² | - |
| 1787844016 | 26.11° C | 35% | 1018 hPa | 0 mm | 0.89 m/s, 129° | 260 W/m² | - |
| 1787843956 | 26.11° C | 35% | 1017.8 hPa | 0 mm | 1.34 m/s, 37° | 263 W/m² | - |
| 1787843896 | 26.11° C | 34% | 1018 hPa | 0 mm | 1.34 m/s, 201° | 271 W/m² | - |
| 1787843836 | 26.11° C | 34% | 1017.9 hPa | 0 mm | 0.45 m/s, 88° | 272 W/m² | - |
| 1787843776 | 26.11° C | 34% | 1018 hPa | 0 mm | 0.89 m/s, 104° | 277 W/m² | - |
| 1787843716 | 26.11° C | 35% | 1017.8 hPa | 0 mm | 1.34 m/s, 20° | 269 W/m² | - |
| 1787843656 | 26.11° C | 34% | 1017.9 hPa | 0 mm | 2.24 m/s, 134° | 263 W/m² | - |
| 1787843596 | 26.11° C | 35% | 1018.1 hPa | 0 mm | 1.34 m/s, 95° | 267 W/m² | - |
| 1787843536 | 26.11° C | 35% | 1017.8 hPa | 0 mm | 0.45 m/s, 190° | 274 W/m² | - |
| 1787843476 | 26.67° C | 34% | 1018.1 hPa | 0 mm | 0.89 m/s, 41° | 280 W/m² | - |
| 1787843416 | 26.67° C | 35% | 1018.1 hPa | 0 mm | 1.34 m/s, 92° | 285 W/m² | - |
| 1787843356 | 26.67° C | 35% | 1017.9 hPa | 0 mm | 0.89 m/s, 39° | 289 W/m² | - |
| 1787843296 | 26.67° C | 35% | 1018 hPa | 0 mm | 1.34 m/s, 63° | 293 W/m² | - |
| 1787843236 | 26.67° C | 34% | 1018 hPa | 0 mm | 1.34 m/s, 49° | 298 W/m² | - |
| 1787843176 | 26.11° C | 36% | 1018 hPa | 0 mm | 0.89 m/s, 359° | 299 W/m² | - |
| 1787843116 | 26.11° C | 35% | 1018 hPa | 0 mm | 0 m/s | 309 W/m² | - |
| 1787843056 | 26.11° C | 35% | 1018 hPa | 0 mm | 0.89 m/s, 18° | 310 W/m² | - |
| 1787843030 | 26.67° C | 34% | 1018.2 hPa | 0 mm | 0.89 m/s, 146° | 313 W/m² | - |
| 1787842936 | 26.67° C | 34% | 1018 hPa | 0 mm | 1.34 m/s, 104° | 301 W/m² | - |
| 1787842876 | 26.67° C | 34% | 1018.1 hPa | 0 mm | 0.45 m/s, 349° | 315 W/m² | - |
* Rain latest hour (hover to see other rain measurements)
** Current wind speed in m/s (hover to see current wind gust speed)